Juneau, WI

6:09 AM CDT on August 20, 2017 (GMT -0500)
Dodge County

Weather History for KUNU - March, 2015

Change the Weather History Date:

Thursday, March 5, 2015

  Actual Average Record
Temperature  
Mean Temperature 6 °F -  
Max Temperature 14 °F 31 °F 66 °F (1983)
Min Temperature -3 °F 19 °F -10 °F (1978)
Degree Days  
Heating Degree Days 60    
Moisture  
Dew Point -7 °F    
Average Humidity 59    
Maximum Humidity 72    
Minimum Humidity 44    
Precipitation  
Precipitation 0.00 in - - ()
Sea Level Pressure  
Sea Level Pressure 30.44 in    
Wind  
Wind Speed 5 mph (WSW)    
Max Wind Speed 12 mph    
Max Gust Speed 20 mph    
Visibility 10 miles    
Events      
Averages and records for this station are not official NWS values.
T = Trace of Precipitation, MM = Missing Value Source: NWS Daily Summary

Daily Weather History Graph

Daily Weather History Graph

Search for Another Location

Airport or City:

Trip Planner

Search our weather history database for the weather conditions in past years. The results will help you decide how hot, cold, wet, or windy it might be!

Date:

Astronomy

Mar. 05, 2015 Rise Set
Actual Time 6:24 AM CST 5:48 PM CST
Civil Twilight 5:56 AM CST 6:17 PM CST
Nautical Twilight 5:23 AM CST 6:50 PM CST
Astronomical Twilight 4:50 AM CST 7:23 PM CST
Moon 6:01 PM CST (3/5) 6:09 AM CST (3/5)
Length of Visible Light 12h 20m
Length of Day
11h 23m
Full, 100% of the Moon is Illuminated
Mar 5
Full
Mar 5
Full
Mar 13
Last Quarter
Mar 20
New
Mar 27
First Quarter

Hourly Weather History & Observations

Time (CST) Temp. Windchill Dew Point Humidity Pressure Visibility Wind Dir Wind Speed Gust Speed Precip Events Conditions
12:15 AM 3.4 °F -4.0 °F -8.0 °F 59% 30.35 in 10.0 mi WNW 3.5 mph - N/A   Clear
12:55 AM 3.0 °F - -8.9 °F 58% 30.37 in 10.0 mi Calm Calm - N/A   Clear
1:15 AM 3.2 °F -4.2 °F -8.9 °F 57% 30.37 in 10.0 mi WNW 3.5 mph - N/A   Clear
1:35 AM 2.7 °F -4.8 °F -8.5 °F 60% 30.37 in 10.0 mi NW 3.5 mph - N/A   Clear
1:55 AM 2.3 °F -8.8 °F -9.4 °F 58% 30.37 in 10.0 mi NW 5.8 mph - N/A   Clear
2:15 AM 1.2 °F -6.4 °F -9.4 °F 61% 30.36 in 10.0 mi NW 3.5 mph - N/A   Clear
2:35 AM 0.5 °F -9.3 °F -9.4 °F 63% 30.36 in 10.0 mi NW 4.6 mph - N/A   Clear
2:55 AM 0.7 °F -10.7 °F -9.6 °F 62% 30.36 in 10.0 mi NW 5.8 mph - N/A   Clear
3:15 AM 0.5 °F -9.3 °F -10.3 °F 60% 30.36 in 10.0 mi NW 4.6 mph - N/A   Clear
3:35 AM -0.0 °F -9.9 °F -10.3 °F 62% 30.37 in 10.0 mi NW 4.6 mph - N/A   Clear
3:55 AM -0.8 °F -8.7 °F -10.5 °F 63% 30.37 in 10.0 mi NW 3.5 mph - N/A   Clear
4:15 AM -1.3 °F -9.3 °F -10.5 °F 65% 30.38 in 10.0 mi NW 3.5 mph - N/A   Clear
4:35 AM -1.8 °F -12.0 °F -10.8 °F 66% 30.38 in 10.0 mi NNW 4.6 mph - N/A   Clear
4:55 AM -2.6 °F -10.8 °F -11.2 °F 67% 30.38 in 10.0 mi NNW 3.5 mph - N/A   Clear
5:15 AM -2.6 °F - -11.2 °F 67% 30.39 in 10.0 mi Calm Calm - N/A   Clear
5:35 AM -3.5 °F - -11.7 °F 68% 30.40 in 10.0 mi Calm Calm - N/A   Clear
5:55 AM -3.5 °F - -11.4 °F 69% 30.41 in 10.0 mi Calm Calm - N/A   Clear
6:15 AM -3.6 °F - -11.6 °F 69% 30.41 in 10.0 mi Calm Calm - N/A   Clear
6:35 AM -3.8 °F - -11.6 °F 69% 30.41 in 10.0 mi Calm Calm - N/A   Clear
6:55 AM -3.6 °F - -11.2 °F 70% 30.42 in 10.0 mi Calm Calm - N/A   Clear
7:15 AM -3.1 °F - -11.2 °F 68% 30.44 in 10.0 mi Calm Calm - N/A   Clear
7:35 AM -1.7 °F - -10.3 °F 67% 30.45 in 10.0 mi Calm Calm - N/A   Clear
7:55 AM 0.1 °F -9.7 °F -9.6 °F 64% 30.46 in 10.0 mi WNW 4.6 mph - N/A   Clear
8:15 AM 1.4 °F -6.2 °F -8.7 °F 63% 30.47 in 10.0 mi NW 3.5 mph - N/A   Clear
8:35 AM 2.3 °F -7.2 °F -9.0 °F 59% 30.47 in 10.0 mi NW 4.6 mph - N/A   Clear
8:55 AM 3.2 °F -6.2 °F -9.2 °F 56% 30.47 in 10.0 mi NW 4.6 mph - N/A   Clear
9:15 AM 4.5 °F -7.6 °F -8.9 °F 54% 30.47 in 10.0 mi NW 6.9 mph - N/A   Clear
9:35 AM 5.5 °F -5.0 °F -9.8 °F 49% 30.47 in 10.0 mi WNW 5.8 mph - N/A   Clear
9:55 AM 6.6 °F -6.1 °F -8.9 °F 49% 30.48 in 10.0 mi NW 8.1 mph - N/A   Clear
11:15 AM 8.8 °F -6.1 °F -7.6 °F 47% 30.48 in 10.0 mi West 11.5 mph 19.6 mph N/A   Clear
11:35 AM 8.6 °F -5.5 °F -7.8 °F 47% 30.48 in 10.0 mi NW 10.4 mph - N/A   Clear
11:55 AM 9.5 °F -4.4 °F -6.5 °F 48% 30.47 in 10.0 mi WSW 10.4 mph - N/A   Clear
12:15 PM 10.4 °F -1.5 °F -5.8 °F 48% 30.47 in 10.0 mi West 8.1 mph - N/A   Clear
12:55 PM 10.9 °F 0.2 °F -5.6 °F 47% 30.46 in 10.0 mi West 6.9 mph - N/A   Clear
1:15 PM 11.7 °F 2.3 °F -4.7 °F 48% 30.45 in 10.0 mi West 5.8 mph - N/A   Clear
1:35 PM 12.2 °F 1.7 °F -4.0 °F 48% 30.45 in 10.0 mi WSW 6.9 mph - N/A   Clear
1:55 PM 12.4 °F 0.0 °F -5.3 °F 45% 30.45 in 10.0 mi West 9.2 mph - N/A   Clear
2:15 PM 12.2 °F 0.7 °F -5.6 °F 45% 30.45 in 10.0 mi West 8.1 mph - N/A   Clear
2:35 PM 13.3 °F 1.1 °F -4.4 °F 45% 30.45 in 10.0 mi WSW 9.2 mph - N/A   Clear
2:55 PM 13.8 °F 3.7 °F -4.2 °F 45% 30.44 in 10.0 mi West 6.9 mph - N/A   Clear
3:15 PM 13.8 °F 3.7 °F -4.7 °F 44% 30.44 in 10.0 mi West 6.9 mph - N/A   Clear
3:35 PM 14.2 °F 3.1 °F -2.9 °F 47% 30.44 in 10.0 mi SW 8.1 mph - N/A   Clear
3:55 PM 14.2 °F 3.1 °F -3.1 °F 46% 30.45 in 10.0 mi WSW 8.1 mph - N/A   Clear
4:15 PM 14.0 °F 1.2 °F -3.5 °F 46% 30.45 in 10.0 mi WSW 10.4 mph - N/A   Clear
4:35 PM 13.8 °F 1.8 °F -4.2 °F 45% 30.45 in 10.0 mi SW 9.2 mph - N/A   Clear
4:55 PM 13.5 °F 2.2 °F -3.6 °F 47% 30.45 in 10.0 mi SW 8.1 mph - N/A   Clear
5:15 PM 13.1 °F 1.8 °F -3.6 °F 47% 30.45 in 10.0 mi SW 8.1 mph - N/A   Clear
5:35 PM 12.2 °F 0.7 °F -2.4 °F 52% 30.46 in 10.0 mi SW 8.1 mph - N/A   Clear
5:55 PM 10.2 °F -0.6 °F -1.7 °F 59% 30.46 in 10.0 mi SSW 6.9 mph - N/A   Clear
6:15 PM 9.0 °F -2.2 °F -2.2 °F 61% 30.46 in 10.0 mi SSW 6.9 mph - N/A   Clear
6:35 PM 8.6 °F -1.3 °F -3.1 °F 59% 30.47 in 10.0 mi SSW 5.8 mph - N/A   Clear
6:55 PM 8.6 °F 0.1 °F -3.1 °F 59% 30.47 in 10.0 mi SSW 4.6 mph - N/A   Clear
7:15 PM 7.7 °F -2.4 °F -3.5 °F 60% 30.46 in 10.0 mi SSW 5.8 mph - N/A   Clear
7:35 PM 7.3 °F -2.8 °F -3.5 °F 61% 30.46 in 10.0 mi SSW 5.8 mph - N/A   Clear
7:55 PM 7.3 °F -2.8 °F -3.8 °F 60% 30.46 in 10.0 mi South 5.8 mph - N/A   Clear
8:15 PM 5.5 °F -5.0 °F -4.4 °F 64% 30.46 in 10.0 mi SSW 5.8 mph - N/A   Clear
8:35 PM 5.7 °F -6.1 °F -4.4 °F 63% 30.46 in 10.0 mi SSW 6.9 mph - N/A   Clear
8:55 PM 3.9 °F -9.4 °F -4.9 °F 67% 30.46 in 10.0 mi SSW 8.1 mph - N/A   Clear
9:15 PM 3.7 °F -9.6 °F -4.9 °F 67% 30.47 in 10.0 mi SSW 8.1 mph - N/A   Clear
9:35 PM 3.7 °F -8.4 °F -4.5 °F 69% 30.47 in 10.0 mi SSW 6.9 mph - N/A   Clear
9:55 PM 3.9 °F -9.4 °F -4.7 °F 67% 30.47 in 10.0 mi South 8.1 mph - N/A   Clear
10:15 PM 3.2 °F -10.3 °F -5.1 °F 68% 30.47 in 10.0 mi SSW 8.1 mph - N/A   Clear
10:35 PM 2.5 °F -10.0 °F -5.3 °F 70% 30.46 in 10.0 mi SSW 6.9 mph - N/A   Clear
10:55 PM 1.6 °F -12.2 °F -6.0 °F 71% 30.46 in 10.0 mi SW 8.1 mph - N/A   Clear
11:15 PM 2.8 °F -10.7 °F -5.8 °F 67% 30.45 in 10.0 mi SW 8.1 mph - N/A   Clear
11:35 PM 1.8 °F -9.5 °F -6.0 °F 70% 30.45 in 10.0 mi SSW 5.8 mph - N/A   Clear
11:55 PM 0.5 °F -12.3 °F -6.7 °F 72% 30.44 in 10.0 mi SW 6.9 mph - N/A   Clear